Altus AFB, OK

4:11 AM CDT on October 15, 2019 (GMT -0500)
Altus Air Force Base

Weather History for KLTS - August, 2019

Change the Weather History Date:

Saturday, August 10, 2019

  Actual Average Record
Temperature  
Mean Temperature 88 °F -  
Max Temperature 104 °F 93 °F 107 °F (1998)
Min Temperature 73 °F 70 °F 66 °F (2007)
Cooling Degree Days 23    
Growing Degree Days 38 (Base 50)    
Moisture  
Dew Point 63 °F    
Average Humidity 46    
Maximum Humidity 77    
Minimum Humidity 24    
Precipitation  
Precipitation 0.00 in - - ()
Sea Level Pressure  
Sea Level Pressure 29.85 in    
Wind  
Wind Speed 8 mph (SSE)    
Max Wind Speed 14 mph    
Max Gust Speed 23 mph    
Visibility 10 miles    
Events      
Averages and records for this station are not official NWS values.
T = Trace of Precipitation, MM = Missing Value Source: NWS Daily Summary

Daily Weather History Graph

Daily Weather History Graph

Search for Another Location

Airport or City:

Astronomy

Aug. 10, 2019 Rise Set
Actual Time 6:53 AM CDT 8:30 PM CDT
Civil Twilight 6:26 AM CDT 8:57 PM CDT
Nautical Twilight 5:54 AM CDT 9:29 PM CDT
Astronomical Twilight 5:19 AM CDT 10:04 PM CDT
Moon 5:09 PM CDT (8/10) 2:35 AM CDT (8/10)
Length of Visible Light 14h 30m
Length of Day
13h 36m
Waxing Gibbous, 79% of the Moon is Illuminated
Aug 10
Waxing Gibbous
Aug 15
Full
Aug 23
Last Quarter
Aug 30
New
Sep 5
First Quarter

Hourly Weather History & Observations

Time (CDT) Temp. Heat Index Dew Point Humidity Pressure Visibility Wind Dir Wind Speed Gust Speed Precip Events Conditions
12:56 AM 82.8 °F 84.0 °F 63.3 °F 52% 29.81 in 10.0 mi SSE 8.1 mph - N/A   Scattered Clouds
1:56 AM 79.7 °F - 64.0 °F 59% 29.82 in 10.0 mi East 4.6 mph - N/A   Clear
2:56 AM 77.9 °F - 63.9 °F 62% 29.87 in 10.0 mi ESE 5.8 mph - N/A   Clear
3:56 AM 76.8 °F - 64.0 °F 65% 29.88 in 10.0 mi SE 8.1 mph - N/A   Clear
4:56 AM 75.0 °F - 64.6 °F 70% 29.88 in 10.0 mi SE 5.8 mph - N/A   Clear
5:56 AM 75.7 °F - 64.4 °F 68% 29.89 in 10.0 mi SE 8.1 mph - N/A   Mostly Cloudy
6:56 AM 73.2 °F - 64.8 °F 75% 29.91 in 10.0 mi SSE 8.1 mph - N/A   Scattered Clouds
7:56 AM 74.5 °F - 66.7 °F 77% 29.87 in 10.0 mi South 5.8 mph - N/A   Clear
8:56 AM 83.5 °F 84.7 °F 63.9 °F 51% 29.89 in 10.0 mi SSW 10.4 mph - N/A   Clear
9:56 AM 90.1 °F 90.2 °F 61.7 °F 38% 29.88 in 10.0 mi SSW 10.4 mph - N/A   Clear
10:56 AM 95.5 °F 96.0 °F 61.0 °F 32% 29.88 in 10.0 mi SW 11.5 mph - N/A   Clear
11:56 AM 98.8 °F 98.3 °F 58.8 °F 26% 29.86 in 10.0 mi SW 9.2 mph - N/A   Clear
12:56 PM 101.3 °F 101.1 °F 57.7 °F 24% 29.84 in 10.0 mi SSW 10.4 mph - N/A   Clear
1:56 PM 102.7 °F 103.3 °F 59.0 °F 24% 29.83 in 10.0 mi SSW 6.9 mph - N/A   Partly Cloudy
2:56 PM 103.3 °F 105.4 °F 61.7 °F 26% 29.82 in 10.0 mi South 11.5 mph 19.6 mph N/A   Clear
3:56 PM 103.5 °F 104.4 °F 60.6 °F 24% 29.81 in 10.0 mi South 12.7 mph 23.0 mph N/A   Clear
5:56 PM 102.9 °F 104.8 °F 61.3 °F 26% 29.78 in 10.0 mi SSE 11.5 mph - N/A   Clear
6:56 PM 99.7 °F 101.2 °F 62.6 °F 29% 29.78 in 10.0 mi South 13.8 mph - N/A   Clear
7:56 PM 94.1 °F 96.9 °F 65.3 °F 39% 29.79 in 10.0 mi SSE 9.2 mph - N/A   Clear
8:56 PM 87.3 °F 89.2 °F 65.7 °F 48% 29.81 in 10.0 mi SSE 8.1 mph - N/A   Clear
9:56 PM 84.4 °F 85.0 °F 62.4 °F 47% 29.84 in 10.0 mi SSE 9.2 mph - N/A   Clear
11:56 PM 85.8 °F 85.7 °F 60.1 °F 42% 29.85 in 10.0 mi SSE 9.2 mph - N/A   Clear